PIA311 OPQT-OPKC

Flight info

Callsign PIA311
Flight time N/A
Altitude 37000
Route KALAT J115 IDEBA N636 NH
Aircraft A321/M-SDE3FGHIRWY/LB1

Departure

Time 2026-05-08 09:30
Airport Quetta International Airport (OPQT)

Arrival

Time N/A
Airport Jinnah International Airport (OPKC)
Time Latitude Longitude Altitude Speed Heading
2026-05-08 09:15 30.24908 66.94728 5242 ft 0 kts 317°
2026-05-08 09:22 30.24912 66.94760 5242 ft 0 kts 227°
2026-05-08 09:25 30.24911 66.94759 5242 ft 1 kts 228°
2026-05-08 09:26 30.24893 66.94735 5242 ft 8 kts 227°
2026-05-08 09:26 30.24833 66.94668 5242 ft 16 kts 221°
2026-05-08 09:26 30.24751 66.94573 5242 ft 16 kts 226°
2026-05-08 09:26 30.24670 66.94499 5242 ft 14 kts 184°
2026-05-08 09:27 30.24593 66.94546 5246 ft 11 kts 135°
2026-05-08 09:27 30.24542 66.94604 5249 ft 10 kts 136°
2026-05-08 09:27 30.24485 66.94668 5252 ft 11 kts 136°
2026-05-08 09:27 30.24396 66.94768 5256 ft 24 kts 135°
2026-05-08 09:28 30.24271 66.94846 5260 ft 15 kts 165°
2026-05-08 09:28 30.24252 66.94904 5261 ft 6 kts
2026-05-08 09:28 30.24300 66.94871 5260 ft 9 kts 318°
2026-05-08 09:28 30.24376 66.94788 5256 ft 23 kts 316°
2026-05-08 09:29 30.24655 66.94482 5242 ft 92 kts 315°
2026-05-08 09:29 30.25307 66.93832 5220 ft 155 kts 323°
2026-05-08 09:29 30.25959 66.93278 5209 ft 189 kts 325°
2026-05-08 09:29 30.27371 66.91824 5745 ft 215 kts 314°
2026-05-08 09:30 30.28381 66.90547 6588 ft 217 kts 315°
2026-05-08 09:30 30.29383 66.89343 7537 ft 201 kts 318°
2026-05-08 09:30 30.30114 66.88718 7777 ft 199 kts 341°
2026-05-08 09:30 30.31492 66.88599 7968 ft 202 kts 14°
2026-05-08 09:31 30.33334 66.89201 8267 ft 213 kts 17°
2026-05-08 09:31 30.34735 66.89874 8457 ft 223 kts 38°
2026-05-08 09:31 30.35392 66.90801 8575 ft 230 kts 64°
2026-05-08 09:31 30.35407 66.93295 8832 ft 247 kts 112°
2026-05-08 09:32 30.34755 66.94415 8947 ft 258 kts 136°
2026-05-08 09:32 30.32510 66.95423 9251 ft 277 kts 181°
2026-05-08 09:32 30.30574 66.95028 9520 ft 289 kts 195°
2026-05-08 09:32 30.28600 66.94414 9774 ft 302 kts 194°
2026-05-08 09:33 30.26552 66.93845 10142 ft 311 kts 193°
2026-05-08 09:33 30.24418 66.93239 10465 ft 322 kts 195°
2026-05-08 09:33 30.22194 66.92573 10712 ft 335 kts 195°
2026-05-08 09:33 30.19892 66.91889 10956 ft 348 kts 195°
2026-05-08 09:34 30.17475 66.91179 11198 ft 361 kts 195°
2026-05-08 09:34 30.14998 66.90455 11436 ft 374 kts 195°
2026-05-08 09:34 30.12468 66.89718 11663 ft 387 kts 195°
2026-05-08 09:34 30.09832 66.88951 11891 ft 399 kts 195°
2026-05-08 09:35 30.07992 66.88415 12041 ft 408 kts 195°
2026-05-08 09:35 30.05228 66.87607 12258 ft 420 kts 195°
2026-05-08 09:35 30.01679 66.86572 12623 ft 431 kts 195°
2026-05-08 09:35 30.00395 66.86198 12838 ft 433 kts 195°